User: anonymous   Login
Location: Ústí nad Labem
(50.6611°N, 14.0531°E)
Time: 01:04:07
(UTC+02:00)
Language:

Transit 2A - Orbit

View from above orbital plane
View from above orbital plane
View from above satellite
View from above satellite

Ground track
Ground track

The orbit data is extracted from the following two-line orbital elements,

1    45U 60007A   24107.57070025  .00000705  00000-0  20101-3 0  9991
2    45  66.6932 292.2330 0250837  15.1661 345.6782 14.34646321323309
Epoch (UTC): 16 April 2024 13:41:48
Eccentricity: 0.0250837
inclination: 66.6932°
perigee height: 597 km
apogee height: 956 km
right ascension of ascending node: 292.2330°
argument of perigee: 15.1661°
revolutions per day: 14.34646321
mean anomaly at epoch: 345.6782°
orbit number at epoch: 32330

The dashed part of the orbit path shows where the satellite is in the earth's shadow,  

DLR